Regional Weather Roundup
Issued by NWS Charleston, SC

Current Version | Previous Version | Graphics & Text | Print | Product List | Glossary On
Versions: 1 2 3 4 5 6 7 8 9 10 11 12 13 14 15 16 17 18 19 20 21 22 23 24 25 26 27 28 29 30 31 32 33 34 35 36 37 38 39 40 41 42 43 44 45 46 47 48 49 50
000
ASUS42 KCHS 061012
RWRCHS

REGIONAL WEATHER ROUNDUP
NATIONAL WEATHER SERVICE CHARLESTON SC
600 AM EDT WED MAY 06 2015

NOTE: "FAIR" INDICATES FEW OR NO CLOUDS BELOW 12,000 FEET WITH NO
SIGNIFICANT WEATHER AND/OR OBSTRUCTIONS TO VISIBILITY.

NOT ALL STATIONS ARE QUALITY CONTROLLED BY THE NATIONAL
WEATHER SERVICE. USE DATA WITH CAUTION...ESPECIALLY
DEWPOINT OBSERVATIONS.

SCZ027-030-031-034>040-042>050-061100-
...SOUTHEAST SOUTH CAROLINA...

CITY           SKY/WX    TMP DP  RH WIND       PRES   REMARKS
N CHARLESTON   MOCLDY    61  59  93 NE6       30.17F
WATERFRONT PRK   N/A     64 N/A N/A N13         N/A
MOUNT PLEASANT FAIR      63  63 100 MISG      30.17S FOG
PINOPOLIS      NOT AVBL
MONCKS CORNER  FAIR      61  59  94 NE3       30.18S
SUMMERVILLE    FAIR      55  55 100 CALM      30.19S
BEAUFORT MCAS  CLEAR     62  60  93 N8        30.16S
BEAUFORT ARPT  FAIR      63  63 100 CALM      30.15F
HILTON HEAD IS NOT AVBL
WALTERBORO     MOSUNNY   55  55 100 N3        30.19S
ALLENDALE      FAIR      61  59  94 CALM      30.18S

...SOUTHERN MIDLANDS AND PEE DEE...

CITY           SKY/WX    TMP DP  RH WIND       PRES   REMARKS
GEORGETOWN     NOT AVBL
KINGSTREE      NOT AVBL
ORANGEBURG     PTCLDY    56  53  90 CALM      30.20F
BARNWELL       FAIR      59  57  94 CALM      30.20F
AIKEN          FAIR      52  48  87 CALM      30.24F
MANNING        FAIR      55  50  82 CALM      30.20F
COLUMBIA       PTCLDY    55  51  86 CALM      30.21S
SUMTER         PTCLDY    56  53  91 NE5       30.20S
FLORENCE       PTCLDY    57  54  89 CALM      30.22S
MYRTLE BEACH   PTCLDY    61  55  82 N7        30.22S
N MYRTLE BEACH CLOUDY    59  56  89 NE5       30.20S

$$

GAZ063-065-086>088-099>101-113>116-118-119-134>141-150-061100-
...SOUTHEAST GEORGIA...

CITY           SKY/WX    TMP DP  RH WIND       PRES   REMARKS
SAVANNAH ARPT  PTCLDY    60  59  96 N6        30.16S
HUNTER AAF     CLEAR     64  63  97 N5        30.12F
FORT STEWART   FAIR      61  59  93 NE8       30.12F
STATESBORO       N/A     58  58 100 CALM      30.17F
SYLVANIA       CLOUDY    60  60 100 CALM      30.19S
CLAXTON        FAIR      59  59 100 CALM      30.16F

...CSRA...CENTRAL AND FAR SOUTHEAST GEORGIA...

CITY           SKY/WX    TMP DP  RH WIND       PRES   REMARKS
THOMSON        CLEAR     52  52 100 CALM      30.25S
AUGUSTA-BUSH   PTCLDY    51  50  96 CALM      30.20S
AUGUSTA-DANIEL PTCLDY    62  56  80 NE3       30.21S
SWAINSBORO     FAIR      61  61 100 NE5       30.19S
VIDALIA        PTCLDY    59  59 100 CALM      30.17S
EASTMAN        FAIR      56  56 100 CALM      30.20S
HAZLEHURST     FAIR      62  61  98 N3        30.15S
ALMA           CLEAR     62  60  93 N3        30.14F
WAYCROSS       CLEAR     64  64  99 NE3       30.13F
JESUP          FAIR      64  64 100 NE5       30.14F
BAXLEY         FAIR      64  61  88 NE5       30.14S
BRUNSWICK      PTCLDY    64  63  94 N5        30.13S
SAINT SIMONS   CLOUDY    69  65  86 N8        30.12S

$$

SCZ027-028-034-036>038-045-046-048>050-GAZ119-141-061100-
...LAKE AND SUPPLEMENTAL COASTAL OBSERVATIONS...

STATION/POSITION TIME  TEMP    WIND        PRES    WAVE   SWELL
                       AIR SEA DIR/SP/G            HT/PER HT/PER/DIR
                 (UTC) (F)     (DEG/KT/KT) (MB)    (FT/S) (FT/S/D)
UPR LAKE MARION  NOT AVBL
WINYAH BAY       0845   67      20/  6     1021.0
LAKE MURRAY      0900   62      CALM  /  1 1022.7S
ACE BASIN NERRS  NOT AVBL
FORT PULASKI     0900   67 70   10/  6/  8 1021.4F
SAPELO ISLAND    0900   66      30/  6     1020.0F

$$

ANZ835-935-AMZ111-154-330-350-352-354-370-450-454-472-061100-
...C-MAN AND BUOY OBSERVATIONS...

STATION/POSITION TIME  TEMP    WIND        PRES    WAVE   SWELL
                       AIR SEA DIR/SP/G            HT/PER HT/PER/DIR
                 (UTC) (F)     (DEG/KT/KT) (MB)    (FT/S) (FT/S/D)
BUOY 41004       0950   73 73   70/ 16/ 17 1020.0F   5/ 8   3/ 8
BUOY 41008       0950   70 70   40/ 14/ 16 1019.9F   5/ 8   3/120/ 8
FOLLY BEACH CMAN 0900   67      10/ 11/ 13 1021.3F
CAPERS NEARSHORE 0908   69      40/ 14/ 19 1021.6F
FRIPP NEARSHORE  0900   69      30/ 14/ 16 1020.6F


STATION/POSITION TIME  TEMP    WIND        PRES    WAVE   SWELL
                       AIR SEA DIR/SP/G            HT/PER HT/PER/DIR
                 (UTC) (F)     (DEG/KT/KT) (MB)    (FT/S) (FT/S/D)
5E ST. MARYS GA  0921      72                N/A     5/ 8
FRYING PAN BUOY  0950   72 71   90/ 10/ 14 1022.8F   5/ 7   3/140/ 7
BUOY 41025       0950   70 75  110/  4/  6 1024.3F   3/ 8   2/ 80/ 8
CAPE LOOKOUT NC  0900   68      50/  5/  5 1023.6F
BUOY 41002       0950   69 71   90/ 19/ 23 1021.0F   7/ 8   3/120/ 8
BUOY 41010       0920   72 78   60/ 17/ 21 1015.4F
ST AUGUSTINE FL  1000   71 72  360/ 12/ 13 1018.8F


$$



USA.gov is the U.S. government's official web portal to all federal, state and local government web resources and services.